Tracking 35331 objects as of 16-Sep-2026
HD Live streaming from Space Station
objects crossing your sky now

HULIANWANG DIGUI-181

Track HULIANWANG DIGUI-181 now!
10-day predictions


NORAD ID: 100206
Int'l Code: 2026-176D
Launch date: August 7, 2026
Source: People's Republic of China (PRC)
Launch site: Wenchang Satellite Launch Center (WSC)
Your satellite tracking list
Your tracking list is empty




NASA's NSSDC Master Catalog

Two Line Element Set (TLE):
1 A0206U 26176D   26258.95846647 -.00000091  00000-0  72095-4 0  9990
2 A0206  49.9910 240.3228 0000274   4.6980 355.3894 13.29328849  5699
Source of the keplerian elements: AFSPC